Temperature
28 28 26 26 27 26 26 26 26 26 26 26 25 24 24 24 25 25 24 24 24 23 22 21 21 21 21 21 22 22 23 22 22 21 21 20 20 19 19 19 19 19 19 19
28 26 26 27 27 26 26 25 25 26 26 26 25 25 25 24 24 23 23 23 22 21 21 20 20 20 20 20 20 21 21 22 22 21 21 20 20 19 19 19 18 18 18 18
26 25 26 26 26 25 24 24 23 23 24 24 24 24 24 24 23 22 22 21 21 20 20 19 19 19 18 18 19 19 20 21 21 21 21 20 19 19 19 19 18 18 18 18
26 25 25 25 24 23 22 23 23 23 22 22 23 22 23 22 20 20 19 20 20 19 19 18 18 18 17 17 17 18 19 20 20 21 21 20 19 19 19 19 18 18 18 18
23 24 23 22 22 23 22 23 23 22 22 22 22 22 21 19 17 17 17 18 18 18 18 17 17 16 16 16 16 17 18 18 19 20 20 20 19 19 19 18 18 18 18 17
24 24 23 22 23 23 23 23 23 23 22 20 21 21 18 16 16 16 16 16 17 16 16 16 16 15 15 15 16 16 17 17 18 19 19 19 19 18 18 18 18 17 17 17
24 23 22 22 21 21 21 20 20 20 20 19 20 18 15 15 16 16 16 15 15 15 15 15 14 14 14 14 15 15 16 16 17 17 18 18 18 17 17 17 17 17 17 17
24 22 21 21 20 19 20 20 18 17 18 18 18 15 13 14 15 15 14 14 13 13 13 13 13 13 13 14 14 14 15 15 15 16 16 16 16 16 16 15 15 16 16 16
23 22 22 21 21 19 18 18 19 18 18 18 16 14 14 14 14 13 13 12 12 12 12 12 13 13 13 13 13 13 14 14 14 14 15 15 15 15 14 14 14 14 14 14
23 22 21 21 21 20 19 18 18 17 16 15 15 13 12 12 12 12 12 11 11 11 12 12 12 12 12 13 13 13 13 13 13 14 14 14 14 14 14 14 14 14 14 14
22 22 21 20 18 17 17 17 17 17 16 14 13 12 11 11 11 11 11 10 10 11 11 11 12 12 12 12 13 13 13 13 13 13 13 13 13 13 13 13 13 14 14 14
22 21 21 19 19 19 18 17 17 15 15 14 13 11 11 11 10 10 10 10 10 11 11 11 12 12 12 12 12 12 13 13 13 13 13 13 13 13 13 14 14 14 14 15
19 21 20 18 19 19 18 17 17 16 15 14 12 11 12 11 10 10 10 11 11 11 12 12 12 12 12 12 12 12 12 13 13 13 13 13 13 13 14 14 14 14 15 15
18 21 19 17 17 17 17 17 17 16 14 13 12 11 11 11 11 11 11 12 12 12 13 13 13 13 13 13 12 12 12 13 13 13 13 13 13 13 14 14 14 14 15 15
21 21 20 19 18 18 18 17 16 15 14 13 12 12 12 12 12 12 13 13 13 13 14 14 14 14 14 13 13 13 13 13 13 13 13 13 13 13 14 14 14 14 15 15
21 21 20 19 19 19 18 17 17 16 15 14 13 13 13 13 13 14 14 14 14 14 14 15 15 15 14 14 14 13 13 12 12 12 12 12 13 13 13 13 14 14 14 14
21 21 20 20 20 19 18 17 17 16 16 15 14 14 14 14 15 15 15 15 15 15 15 15 15 15 15 14 14 13 13 12 12 12 12 12 12 12 12 12 13 13 13 13
21 21 21 21 21 18 17 18 17 16 16 16 16 16 15 15 15 15 15 15 15 15 15 15 15 15 15 15 15 14 13 12 12 12 12 12 12 12 12 12 12 12 12 12
21 20 20 21 20 18 18 18 18 17 17 17 17 17 17 17 16 16 16 16 15 15 15 15 15 15 15 15 15 14 13 13 12 12 12 11 11 11 12 12 12 12 11 11
20 20 20 20 20 19 18 19 18 18 17 17 17 17 17 17 16 16 16 16 15 15 15 15 15 15 15 15 15 14 14 13 12 12 12 12 12 12 12 12 11 11 11 11
21 20 20 20 21 19 19 18 18 17 17 18 17 17 17 17 16 16 16 16 15 15 15 15 15 15 15 15 15 15 14 13 12 12 12 12 12 12 12 12 11 11 11 11
22 21 21 21 20 18 18 18 18 18 18 18 17 17 16 16 16 16 16 16 16 15 15 15 15 15 15 15 15 15 14 13 13 13 12 12 12 12 11 11 11 11 10 10
21 21 20 20 18 18 18 18 18 18 18 17 17 16 16 16 16 16 16 16 15 15 15 15 15 15 15 15 15 15 14 14 13 13 13 12 12 11 11 11 11 11 10 10
23 21 20 20 19 18 18 17 16 17 17 16 16 16 16 16 16 16 16 16 15 15 15 15 15 15 15 15 15 15 14 14 14 14 13 13 12 11 11 11 11 11 11 10
22 20 20 20 20 18 17 17 16 16 16 16 16 15 15 15 16 16 16 15 15 15 15 15 15 15 15 16 15 15 15 14 15 14 13 13 12 12 11 11 11 11 10 10
22 21 20 20 20 19 18 17 17 16 16 16 16 16 15 15 15 15 15 15 15 15 15 15 15 15 15 15 15 15 15 14 14 14 13 13 12 12 11 11 11 11 10 10
Wind_Speed
2 4 6 9 10 11 14 14 15 10 3 5 7 5 3 3 3 1 2 5 7 9 10 11 11 10 10 10 10 8 4 6 6 6 7 7 6 5 5 4 5 6 3 4
4 7 10 10 10 11 13 14 15 12 9 9 10 8 3 3 4 4 6 7 9 11 11 10 10 11 12 11 11 11 9 5 6 6 7 7 8 6 6 5 4 6 5 4
9 10 11 11 11 12 13 13 14 15 15 13 14 13 8 6 6 6 6 7 9 10 11 11 11 11 11 12 12 12 12 10 7 7 6 7 7 6 6 5 4 3 4 4
5 11 12 12 12 14 13 14 15 16 14 11 12 11 5 3 9 11 11 10 11 10 10 10 10 11 12 12 12 14 14 12 8 5 7 9 8 7 6 6 5 5 4 4
9 11 11 12 13 14 13 15 17 18 16 15 14 12 2 7 10 11 12 13 13 13 12 12 12 11 12 12 12 12 13 12 9 5 4 8 8 7 6 7 7 5 4 3
9 8 8 10 13 12 15 16 17 15 11 12 10 10 4 9 12 13 13 15 16 16 14 13 13 11 11 11 11 11 11 11 10 6 1 4 7 8 8 8 8 5 4 3
7 11 11 12 14 13 15 14 7 6 3 3 6 4 7 13 15 15 15 16 17 17 16 15 14 13 12 12 12 12 11 10 10 9 7 5 5 6 6 7 7 6 4 3
4 6 10 11 11 11 13 12 7 6 7 9 5 5 6 15 17 17 17 17 18 17 16 15 14 13 12 13 12 12 11 10 10 9 9 8 8 6 5 6 5 5 4 2
7 5 9 8 10 12 11 10 9 7 9 6 4 4 5 17 20 20 20 19 19 18 16 15 14 13 12 12 11 11 11 10 10 9 8 8 7 7 6 6 5 4 3 2
8 2 7 6 8 12 10 9 6 6 6 5 5 6 10 19 20 19 19 19 18 17 15 14 13 13 12 11 10 11 11 10 9 9 7 7 7 6 5 5 4 3 1 1
8 5 5 6 9 12 12 11 8 5 4 4 4 4 9 13 14 15 15 15 16 16 15 13 12 11 10 11 11 11 10 9 9 8 7 7 6 6 6 5 4 3 1 0
7 5 3 9 8 8 11 10 9 5 5 4 2 4 9 10 11 12 12 13 13 14 13 12 11 11 10 11 10 10 9 9 8 7 6 6 6 5 5 5 4 3 2 3
8 7 3 5 3 9 11 12 10 5 3 5 4 4 7 8 9 10 11 10 10 11 11 10 9 9 9 8 8 8 8 7 7 6 5 5 5 5 4 3 3 3 4 5
4 5 10 7 5 6 9 12 12 9 5 5 4 4 7 8 8 9 9 8 8 8 8 8 8 7 6 6 6 6 6 5 5 5 5 5 4 3 3 3 4 4 4 5
5 5 8 7 4 5 8 10 11 11 7 5 4 5 5 6 7 7 7 7 7 8 8 7 7 6 6 6 6 6 6 5 5 5 6 6 4 4 3 3 4 5 5 5
4 1 3 5 4 3 6 9 9 8 8 6 5 3 3 5 5 6 7 7 8 9 10 8 7 7 7 7 7 7 7 7 7 8 7 7 6 6 6 6 6 6 7 8
2 3 3 3 5 2 4 7 7 7 6 4 4 1 4 5 6 7 7 8 9 9 9 9 9 8 8 8 7 8 8 7 8 8 8 8 8 8 8 8 8 8 8 9
5 4 3 2 3 3 5 6 5 5 4 3 2 1 3 3 2 4 6 8 9 9 9 9 8 8 8 8 7 7 8 9 8 8 8 8 8 8 7 8 8 8 7 7
5 3 4 4 2 7 6 6 4 2 4 3 1 1 3 3 2 6 9 7 7 8 7 8 8 7 7 8 8 7 8 8 8 8 8 8 8 8 8 8 7 6 6 6
2 2 4 4 4 2 6 9 6 3 4 5 1 3 5 5 4 6 8 7 7 6 6 7 7 7 7 6 6 7 8 8 8 8 7 7 7 7 8 8 8 6 6 6
4 4 4 5 2 5 9 10 6 2 5 6 4 5 8 9 6 5 6 7 6 6 6 7 7 6 5 5 5 7 7 7 6 6 6 7 7 7 8 7 7 7 6 6
4 3 2 2 2 4 11 8 3 6 8 6 5 6 6 5 5 6 6 6 6 6 6 6 6 6 5 4 5 5 5 4 4 4 4 5 6 7 7 6 7 7 7 7
2 3 4 3 4 8 9 5 6 5 6 6 6 5 4 4 5 6 6 6 6 7 6 6 6 6 6 5 5 4 3 2 3 3 3 4 6 6 7 7 7 7 7 6
3 3 1 2 6 9 8 7 6 4 5 6 5 4 3 4 5 5 5 6 6 7 6 6 7 7 7 5 4 4 3 2 1 4 4 6 6 6 7 6 6 6 7 7
0 5 3 4 6 9 9 8 9 7 6 6 5 3 3 3 4 5 5 6 6 6 6 6 6 6 7 5 5 5 5 5 2 4 5 6 6 5 6 6 6 6 6 5
5 6 4 3 7 7 11 12 11 10 8 7 6 5 3 2 3 5 5 5 5 6 7 6 6 6 7 7 6 6 5 5 5 5 6 4 4 4 5 6 5 8 7 8
Wind_Direction
260 302 14 2 348 328 314 306 301 301 273 271 270 248 187 140 122 90 37 24 28 28 19 25 11 359 348 336 325 311 259 209 196 174 172 167 168 162 158 163 170 181 176 130
262 43 12 344 321 317 316 313 312 313 327 315 298 279 234 168 133 70 36 22 26 17 6 12 7 1 355 349 339 326 316 271 218 198 188 177 168 168 162 167 161 161 168 161
41 31 1 339 338 346 327 324 330 324 319 308 298 279 243 202 134 100 56 32 24 15 3 1 1 358 351 348 345 335 322 308 267 210 189 186 168 162 159 161 149 140 146 149
51 27 4 353 356 347 318 330 321 306 298 288 278 278 266 113 68 40 21 19 21 14 6 0 1 358 352 349 346 339 333 323 307 249 194 179 174 171 168 160 152 151 151 153
63 35 18 4 346 328 316 313 297 285 278 276 276 273 322 47 40 25 10 5 10 7 5 3 3 359 354 354 349 344 339 335 332 318 202 184 179 167 157 147 144 142 137 134
96 75 46 5 337 338 327 313 294 273 258 260 277 278 52 25 15 11 6 5 6 2 360 3 3 3 1 1 356 353 352 353 353 357 21 170 166 152 147 137 135 124 112 94
120 85 53 19 359 354 345 341 333 336 311 293 346 16 51 17 14 9 7 7 5 1 1 3 7 8 7 3 1 1 4 9 10 25 37 69 104 119 129 125 123 122 116 110
348 71 46 22 13 349 350 356 355 329 325 324 17 65 50 9 5 7 8 7 4 2 1 5 11 11 6 5 7 9 12 20 25 37 50 61 69 77 90 101 110 113 112 115
356 66 73 42 28 19 357 356 332 311 311 318 44 72 21 4 2 4 5 5 4 2 3 7 12 12 7 8 12 14 22 30 34 43 55 63 71 79 87 89 91 97 106 137
334 337 92 66 33 33 16 353 346 351 345 345 29 37 359 352 354 358 3 2 360 360 5 10 11 10 8 11 15 20 27 33 36 39 48 60 60 67 76 82 83 89 113 154
341 317 120 79 42 22 16 13 360 348 10 356 359 33 5 352 353 356 0 0 1 4 4 8 10 9 11 19 22 21 22 29 34 39 46 50 52 53 62 68 69 63 34 344
10 322 30 90 88 56 35 16 8 9 11 15 27 39 8 356 356 358 357 357 -0 2 4 7 9 10 16 20 19 17 18 25 30 34 40 44 44 46 43 34 25 10 324 295
342 331 16 125 121 41 29 22 18 27 43 33 31 18 7 354 1 -0 353 353 355 359 3 4 7 12 15 15 13 15 16 21 25 27 31 38 34 31 22 5 339 310 292 281
295 22 46 51 45 17 23 28 31 40 46 51 44 12 0 355 351 347 344 347 353 0 5 9 8 11 16 20 21 16 16 19 31 35 34 34 27 9 349 336 319 300 289 284
310 59 78 88 82 52 47 43 45 52 56 61 60 40 358 331 328 328 334 348 8 14 12 13 10 13 24 31 34 30 34 34 39 42 37 27 22 9 1 356 343 336 343 347
337 35 140 137 128 92 69 58 57 57 58 82 91 61 312 307 318 351 3 13 24 21 13 9 17 20 30 36 41 38 40 44 45 44 38 31 34 31 27 25 25 24 25 20
332 312 317 129 151 202 77 60 67 70 69 67 62 17 307 332 358 11 13 21 27 22 11 5 17 26 28 31 45 53 46 45 46 49 44 38 37 37 34 29 26 35 44 37
327 333 305 286 183 67 92 109 107 98 97 94 78 299 289 301 339 24 30 25 24 17 10 2 7 24 28 24 40 56 59 49 41 41 47 43 37 35 35 36 36 36 42 47
343 333 308 333 51 125 144 156 163 135 123 132 76 343 303 243 166 59 38 29 27 15 5 355 357 17 27 21 29 50 60 56 42 34 40 42 37 31 28 31 39 38 37 43
217 255 287 298 320 69 136 137 154 220 146 137 116 23 12 33 69 40 24 26 23 18 5 351 353 13 17 13 22 44 54 53 44 31 31 36 36 39 32 23 21 27 32 30
217 204 251 292 321 98 123 138 175 241 117 129 106 54 42 45 45 26 16 21 13 14 12 358 352 0 354 360 23 52 52 55 55 40 33 33 30 50 49 27 21 23 26 25
319 309 303 298 294 130 144 163 193 100 115 126 100 68 55 41 34 26 18 18 11 6 14 4 348 340 336 11 30 54 64 62 74 65 47 51 51 45 46 41 34 30 22 28
234 325 345 7 62 106 151 147 102 123 132 115 101 82 57 38 31 23 15 19 13 5 11 355 342 344 353 23 31 40 70 57 100 83 60 72 77 71 50 44 40 33 28 27
147 108 244 236 164 159 173 147 140 167 123 113 110 102 59 33 27 17 15 24 12 2 359 354 7 5 344 351 31 48 40 327 127 110 79 77 73 76 70 49 45 44 29 22
82 152 218 235 148 152 179 175 168 169 150 146 142 122 81 36 19 8 22 23 4 355 358 11 17 347 332 358 42 55 24 341 15 93 87 84 81 86 89 73 46 50 59 41
204 185 204 228 168 172 182 179 173 170 173 170 162 153 136 87 23 9 23 18 2 2 6 6 3 350 353 12 35 52 27 349 21 68 71 72 87 97 121 123 97 56 66 62
Height
1498 1499 1505 1504 1502 1504 1503 1503 1503 1499 1497 1499 1500 1502 1501 1503 1504 1506 1507 1508 1509 1511 1512 1511 1511 1510 1510 1509 1509 1510 1511 1511 1513 1514 1515 1517 1520 1522 1525 1527 1530 1532 1535 1537
1499 1507 1506 1505 1503 1504 1505 1507 1506 1499 1496 1499 1500 1500 1500 1502 1505 1508 1509 1510 1511 1513 1513 1512 1511 1510 1509 1508 1507 1506 1507 1508 1508 1509 1510 1511 1514 1517 1520 1523 1526 1528 1531 1533
1507 1511 1509 1508 1507 1511 1513 1513 1513 1511 1504 1502 1505 1505 1502 1501 1505 1510 1512 1513 1514 1515 1515 1514 1512 1511 1509 1507 1505 1504 1503 1503 1504 1504 1505 1507 1508 1511 1515 1518 1521 1524 1527 1529
1509 1513 1514 1514 1516 1518 1521 1514 1514 1512 1515 1514 1510 1518 1504 1504 1511 1515 1517 1516 1516 1516 1515 1514 1512 1510 1508 1506 1503 1501 1499 1498 1498 1499 1499 1500 1501 1504 1507 1512 1515 1519 1522 1525
1519 1520 1522 1524 1524 1521 1519 1514 1512 1510 1511 1514 1510 1514 1515 1514 1521 1523 1523 1521 1519 1518 1516 1514 1512 1510 1507 1504 1501 1499 1496 1494 1494 1494 1494 1495 1496 1498 1503 1507 1510 1514 1517 1520
1518 1522 1525 1529 1524 1520 1517 1512 1505 1500 1505 1519 1514 1516 1529 1532 1532 1530 1528 1524 1521 1520 1517 1514 1511 1508 1506 1502 1499 1496 1493 1491 1490 1490 1490 1491 1493 1495 1499 1502 1505 1509 1512 1515
1519 1524 1527 1530 1528 1525 1521 1522 1524 1522 1520 1524 1517 1525 1545 1541 1536 1535 1531 1527 1524 1521 1518 1514 1511 1508 1505 1501 1498 1495 1492 1490 1488 1488 1488 1489 1491 1493 1496 1498 1500 1504 1508 1511
1521 1529 1532 1533 1535 1536 1529 1529 1540 1547 1538 1529 1524 1542 1551 1546 1542 1538 1534 1530 1526 1522 1518 1515 1512 1509 1505 1502 1499 1495 1492 1490 1489 1488 1488 1489 1490 1492 1494 1496 1499 1502 1505 1509
1528 1533 1532 1535 1535 1537 1537 1536 1532 1537 1534 1534 1539 1546 1547 1546 1544 1540 1537 1533 1529 1525 1520 1517 1514 1510 1507 1504 1500 1497 1494 1492 1490 1489 1489 1490 1491 1492 1494 1496 1498 1501 1503 1507
1529 1531 1533 1535 1537 1538 1540 1539 1537 1542 1549 1550 1549 1557 1562 1553 1549 1545 1541 1537 1532 1527 1522 1519 1515 1512 1509 1506 1503 1500 1497 1495 1493 1492 1492 1492 1492 1494 1495 1497 1499 1502 1504 1506
1531 1530 1533 1536 1545 1548 1546 1544 1543 1542 1545 1556 1563 1570 1566 1562 1557 1551 1547 1541 1535 1530 1525 1521 1516 1513 1511 1508 1505 1503 1500 1498 1497 1496 1495 1495 1495 1496 1497 1499 1501 1502 1504 1507
1533 1534 1534 1543 1545 1546 1547 1548 1547 1554 1556 1556 1565 1576 1568 1564 1559 1554 1549 1543 1539 1534 1529 1524 1520 1516 1513 1510 1508 1506 1504 1502 1501 1500 1499 1499 1499 1500 1501 1501 1503 1504 1505 1507
1541 1537 1541 1550 1551 1549 1550 1549 1548 1549 1555 1562 1570 1577 1568 1564 1560 1555 1550 1546 1541 1537 1532 1528 1524 1520 1517 1514 1512 1509 1507 1505 1504 1503 1503 1503 1503 1503 1504 1504 1505 1506 1507 1509
1545 1539 1548 1560 1562 1556 1556 1554 1552 1554 1563 1569 1574 1574 1569 1565 1561 1557 1552 1548 1544 1540 1536 1532 1528 1525 1522 1519 1516 1513 1511 1509 1508 1507 1506 1506 1506 1506 1506 1507 1507 1508 1508 1509
1541 1542 1547 1551 1553 1553 1556 1557 1557 1560 1564 1570 1573 1572 1570 1565 1562 1558 1554 1550 1547 1543 1539 1536 1533 1530 1527 1524 1521 1518 1515 1513 1511 1510 1509 1508 1508 1508 1508 1508 1508 1508 1508 1508
1541 1542 1544 1550 1551 1552 1555 1557 1559 1562 1564 1568 1570 1571 1567 1564 1561 1558 1555 1552 1549 1546 1543 1539 1537 1534 1531 1528 1525 1523 1520 1518 1515 1513 1512 1511 1510 1509 1509 1509 1508 1508 1508 1508
1541 1541 1544 1545 1547 1550 1558 1560 1561 1563 1564 1566 1569 1570 1566 1564 1561 1559 1557 1554 1552 1549 1546 1543 1540 1538 1535 1532 1529 1527 1524 1522 1520 1518 1516 1515 1513 1512 1511 1510 1510 1509 1508 1508
1543 1542 1542 1541 1544 1560 1564 1558 1561 1563 1564 1565 1565 1565 1564 1562 1561 1560 1558 1556 1554 1552 1549 1546 1543 1541 1539 1536 1533 1531 1528 1526 1524 1522 1520 1519 1517 1516 1514 1513 1512 1511 1510 1509
1545 1546 1545 1543 1547 1557 1559 1557 1559 1561 1563 1563 1563 1563 1561 1559 1561 1561 1560 1558 1557 1554 1552 1549 1547 1544 1542 1540 1537 1535 1532 1530 1528 1526 1524 1522 1520 1519 1517 1516 1515 1513 1512 1511
1546 1545 1547 1545 1547 1554 1555 1554 1557 1561 1562 1562 1562 1562 1560 1559 1561 1563 1561 1559 1558 1556 1554 1551 1549 1547 1544 1542 1540 1537 1535 1533 1531 1529 1528 1526 1523 1522 1520 1518 1517 1516 1514 1513
1542 1544 1546 1544 1544 1549 1550 1554 1558 1563 1563 1561 1562 1562 1562 1562 1564 1564 1562 1560 1559 1557 1555 1552 1550 1548 1546 1544 1542 1539 1538 1536 1534 1532 1530 1528 1526 1524 1522 1520 1519 1517 1516 1515
1541 1541 1541 1543 1546 1555 1550 1554 1555 1557 1558 1560 1562 1563 1564 1564 1564 1563 1562 1561 1559 1557 1555 1553 1550 1548 1547 1545 1543 1541 1539 1538 1536 1534 1532 1531 1529 1527 1525 1523 1521 1519 1518 1517
1540 1540 1541 1543 1549 1547 1550 1552 1554 1556 1558 1560 1562 1564 1564 1565 1564 1563 1562 1561 1559 1557 1555 1553 1551 1549 1547 1546 1544 1542 1541 1539 1538 1536 1535 1533 1531 1529 1527 1525 1523 1521 1520 1519
1534 1538 1541 1542 1543 1547 1550 1551 1554 1556 1558 1560 1562 1564 1564 1565 1564 1563 1562 1561 1559 1557 1555 1553 1551 1549 1548 1546 1545 1543 1542 1540 1539 1538 1537 1535 1534 1532 1530 1528 1526 1524 1523 1521
1533 1538 1540 1540 1540 1545 1548 1550 1553 1556 1558 1560 1562 1563 1564 1564 1564 1564 1563 1561 1559 1558 1556 1554 1552 1550 1548 1547 1546 1544 1542 1541 1541 1540 1538 1537 1536 1534 1533 1531 1529 1528 1526 1524
1530 1534 1537 1537 1536 1540 1544 1548 1551 1554 1557 1559 1561 1562 1563 1564 1564 1563 1563 1561 1560 1558 1557 1555 1553 1551 1550 1548 1547 1545 1543 1542 1542 1541 1540 1539 1538 1536 1535 1534 1533 1531 1530 1528